Time_in_sec,Latitude,Longitude,Altitude,Nbsat,valid_data
1312471269.49532914,47.37627411,8.55023861,533.03253174,5,1
1312471360.74432588,47.37607193,8.55032921,597.58264160,4,1
1312471360.79641366,47.37607193,8.55032921,597.59204102,4,1
1312471360.84347534,47.37607193,8.55032730,596.87408447,4,1
1312471360.89265418,47.37607574,8.55032730,596.88146973,4,1
1312471360.94330072,47.37607574,8.55032730,596.88879395,4,1
1312471360.99639249,47.37607574,8.55032730,596.89605713,4,1
1312471361.04467773,47.37607574,8.55032730,596.90332031,4,1
1312471361.09668708,47.37607574,8.55032635,596.19519043,4,1
1312471361.14433241,47.37607574,8.55032635,596.20050049,4,1
1312471361.19592977,47.37607574,8.55032635,596.20568848,4,1
1312471361.24328041,47.37607574,8.55032635,596.21087646,4,1
1312471361.29238820,47.37607574,8.55032635,596.21606445,5,1
1312471361.34328175,47.37607956,8.55032539,595.49517822,5,1
1312471361.39642000,47.37607956,8.55032539,595.49822998,5,1
1312471361.44331765,47.37607956,8.55032539,595.50122070,5,1
1312471361.49420047,47.37607956,8.55032539,595.50415039,5,1
1312471361.54429221,47.37607956,8.55032539,595.50708008,5,1
1312471361.59548187,47.37607956,8.55032539,594.78784180,5,1
1312471361.64334202,47.37607956,8.55032539,594.78869629,5,1
1312471361.69632530,47.37608337,8.55032539,594.78948975,5,1
1312471361.74442863,47.37608337,8.55032539,594.79028320,5,1
1312471361.79646158,47.37608337,8.55032539,594.79101562,5,1
1312471361.84334326,47.37608337,8.55032444,594.06933594,5,1
1312471361.89824390,47.37608337,8.55032444,594.06805420,5,1
1312471361.94341803,47.37608337,8.55032444,594.06665039,5,1
1312471361.99642038,47.37608337,8.55032444,594.06524658,5,1
1312471362.04355001,47.37608337,8.55032444,594.06384277,5,1
1312471362.09540248,47.37608719,8.55032349,593.36322021,5,1
1312471362.14442706,47.37608719,8.55032349,593.35986328,5,1
1312471362.19535732,47.37608719,8.55032349,593.35644531,5,1
1312471362.24341464,47.37608719,8.55032349,593.35296631,5,1
1312471362.29410839,47.37608719,8.55032349,593.34942627,5,1
1312471362.34330463,47.37608719,8.55032158,592.64605713,5,1
1312471362.39528918,47.37608719,8.55032158,592.64062500,5,1
1312471362.44441271,47.37608719,8.55032158,592.63513184,5,1
1312471362.49536324,47.37608719,8.55032158,592.62957764,5,1
1312471362.54341912,47.37608719,8.55032158,592.62402344,5,1
1312471362.59533405,47.37609100,8.55032063,591.92761230,5,1
1312471362.64433384,47.37609100,8.55032063,591.92016602,5,1
1312471362.69551420,47.37609100,8.55032063,591.91259766,5,1
1312471362.74340558,47.37609100,8.55032063,591.90502930,5,1
1312471362.79542422,47.37609100,8.55032063,591.89739990,5,1
1312471362.84341216,47.37609482,8.55031967,591.19897461,5,1
1312471362.89646339,47.37609482,8.55031967,591.18945312,5,1
1312471362.94340277,47.37609482,8.55031967,591.17980957,5,1
1312471362.99541330,47.37609482,8.55031967,591.17022705,5,1
1312471363.04333425,47.37609482,8.55031967,591.16052246,5,1
1312471363.09533381,47.37609482,8.55031872,590.46618652,5,1
1312471363.14334345,47.37609482,8.55031872,590.45458984,5,1
1312471363.19542861,47.37609482,8.55031872,590.44299316,5,1
1312471363.24466395,47.37609482,8.55031872,590.43133545,5,1
1312471363.29568839,47.37609482,8.55031872,590.41961670,5,1
1312471363.34328604,47.37609863,8.55031776,589.73284912,5,1
1312471363.39535141,47.37609863,8.55031776,589.71929932,5,1
1312471363.44341946,47.37609863,8.55031776,589.70568848,5,1
1312471363.49529099,47.37609863,8.55031776,589.69201660,5,1
1312471363.54337001,47.37609863,8.55031776,589.67828369,5,1
1312471363.59541965,47.37609863,8.55031776,589.00451660,5,1
1312471363.64441895,47.37609863,8.55031776,588.98901367,5,1
1312471363.69241238,47.37609863,8.55031776,588.97344971,5,1
1312471363.74443078,47.37609863,8.55031776,588.95782471,5,1
1312471363.79241991,47.37609863,8.55031776,588.94219971,5,1
1312471363.84382868,47.37610245,8.55031776,588.26977539,5,1
1312471363.89371061,47.37610245,8.55031776,588.25231934,5,1
1312471363.94337392,47.37610245,8.55031776,588.23480225,5,1
1312471363.99536085,47.37610245,8.55031776,588.21728516,5,1
1312471364.04331851,47.37610245,8.55031776,588.19970703,5,1
1312471364.09534860,47.37610245,8.55031776,587.54028320,5,1
1312471364.14334273,47.37610245,8.55031776,587.52093506,5,1
1312471364.19534898,47.37610245,8.55031776,587.50158691,5,1
1312471364.24364853,47.37610245,8.55031776,587.48217773,5,1
1312471364.29637337,47.37610245,8.55031776,587.46270752,5,1
1312471364.34333682,47.37610626,8.55031681,586.79174805,5,1
1312471364.39244056,47.37610626,8.55031681,586.77044678,5,1
1312471364.44400525,47.37610626,8.55031681,586.74908447,5,1
1312471364.49641728,47.37610626,8.55031681,586.72766113,5,1
1312471364.54441667,47.37610626,8.55031681,586.70623779,5,1
1312471364.59532619,47.37610626,8.55031586,586.05767822,5,1
1312471364.64332843,47.37610626,8.55031586,586.03448486,5,1
1312471364.69678831,47.37610626,8.55031586,586.01123047,5,1
1312471364.74339604,47.37610626,8.55031586,585.98791504,5,1
1312471364.79583883,47.37610626,8.55031586,585.96453857,5,1
1312471364.84340549,47.37610626,8.55031490,585.32916260,5,1
1312471364.89643908,47.37610626,8.55031490,585.30407715,5,1
1312471364.94439101,47.37611008,8.55031490,585.27899170,5,1
1312471364.99641752,47.37611008,8.55031490,585.25384521,5,1
1312471365.04330111,47.37611008,8.55031490,585.22863770,5,1
1312471365.09621549,47.37611008,8.55031490,584.61065674,5,1
1312471365.14330602,47.37611008,8.55031490,584.58380127,5,1
1312471365.19642854,47.37611008,8.55031490,584.55694580,5,1
1312471365.24429822,47.37611008,8.55031490,584.53009033,5,1
1312471365.29641628,47.37611008,8.55031490,584.50311279,5,1
1312471365.34330583,47.37611008,8.55031395,583.90277100,5,1
1312471365.39539790,47.37611008,8.55031395,583.87420654,5,1
1312471365.44448256,47.37611008,8.55031490,583.84564209,5,1
1312471365.49531317,47.37611008,8.55031490,583.81701660,5,1
1312471365.54448414,47.37611008,8.55031490,583.78833008,5,1
1312471365.59528422,47.37611389,8.55031490,583.21386719,5,1
1312471365.64464855,47.37611389,8.55031490,583.18371582,5,1
1312471365.69642377,47.37611389,8.55031490,583.15344238,5,1
1312471365.74327970,47.37611389,8.55031490,583.12316895,5,1
1312471365.79531407,47.37611389,8.55031490,583.09289551,5,1
1312471365.84328723,47.37611389,8.55031395,582.53088379,5,1
1312471365.89653778,47.37611389,8.55031395,582.49914551,5,1
1312471365.94435167,47.37611389,8.55031395,582.46734619,5,1
1312471365.99533391,47.37611389,8.55031395,582.43548584,5,1
1312471366.04409981,47.37611771,8.55031395,582.40362549,5,1
1312471366.09646273,47.37611771,8.55031300,581.86596680,5,1
1312471366.14457321,47.37611771,8.55031300,581.83270264,5,1
1312471366.19644523,47.37611771,8.55031300,581.79937744,5,1
1312471366.24440384,47.37611771,8.55031300,581.76599121,5,1
1312471366.29532194,47.37611771,8.55031300,581.73260498,5,1
1312471366.34442425,47.37611771,8.55031300,581.20550537,5,1
1312471366.39564133,47.37611771,8.55031300,581.17071533,5,1
1312471366.44346094,47.37611771,8.55031300,581.13592529,5,1
1312471366.49542761,47.37611771,8.55031300,581.10113525,5,1
1312471366.54333043,47.37611771,8.55031300,581.06628418,5,1
1312471366.59629083,47.37611771,8.55031204,580.56079102,5,1
1312471366.64336371,47.37611771,8.55031204,580.52471924,5,1
1312471366.69723487,47.37611771,8.55031204,580.48852539,5,1
1312471366.74331737,47.37611771,8.55031204,580.45239258,5,1
1312471366.79641724,47.37611771,8.55031204,580.41613770,5,1
1312471366.84440994,47.37612152,8.55031204,579.92016602,5,1
1312471366.89533162,47.37612152,8.55031204,579.88269043,5,1
1312471366.94327307,47.37612152,8.55031204,579.84515381,5,1
1312471366.99530602,47.37612152,8.55031204,579.80761719,5,1
1312471367.04467249,47.37612152,8.55031204,579.77001953,5,1
1312471367.09627628,47.37612152,8.55031109,579.27703857,5,1
1312471367.14327240,47.37612152,8.55031109,579.23822021,5,1
1312471367.19235945,47.37612152,8.55031109,579.19940186,5,1
1312471367.24329996,47.37612152,8.55031109,579.16052246,5,1
1312471367.29643059,47.37612152,8.55031109,579.12164307,5,1
1312471367.34327841,47.37612152,8.55031109,578.63055420,5,1
1312471367.39642215,47.37612152,8.55031109,578.59045410,5,1
1312471367.44327354,47.37612152,8.55031109,578.55029297,5,1
1312471367.49553609,47.37612152,8.55031109,578.51013184,5,1
1312471367.54326725,47.37612152,8.55031109,578.46984863,5,1
1312471367.59585619,47.37612534,8.55031013,577.98919678,5,1
1312471367.64328146,47.37612534,8.55031013,577.94781494,5,1
1312471367.69633150,47.37612534,8.55031013,577.90637207,5,1
1312471367.74333549,47.37612534,8.55031013,577.86492920,5,1
1312471367.79535890,47.37612534,8.55031013,577.82342529,5,1
1312471367.84327579,47.37612534,8.55031013,577.33831787,5,1
1312471367.89682722,47.37612534,8.55031013,577.29559326,5,1
1312471367.94329524,47.37612534,8.55031013,577.25280762,5,1
1312471367.99534726,47.37612534,8.55031013,577.21002197,5,1
1312471368.04442835,47.37612534,8.55031013,577.16717529,5,1
1312471368.09533191,47.37612534,8.55031013,576.69946289,5,1
1312471368.14428687,47.37612534,8.55031013,576.65551758,5,1
1312471368.19624972,47.37612534,8.55031013,576.61151123,5,1
1312471368.24443984,47.37612534,8.55031013,576.56750488,5,1
1312471368.29629159,47.37612534,8.55031013,576.52343750,5,1
1312471368.34442878,47.37612534,8.55030918,576.04687500,5,1
1312471368.39533615,47.37612534,8.55030918,576.00164795,5,1
1312471368.44442987,47.37612534,8.55030918,575.95635986,5,1
1312471368.49534273,47.37612534,8.55030918,575.91101074,5,1
1312471368.54442239,47.37612534,8.55030918,575.86566162,5,1
1312471368.59541130,47.37612534,8.55030918,575.41406250,5,1
1312471368.64339542,47.37612534,8.55030918,575.36755371,5,1
1312471368.69623971,47.37612534,8.55030918,575.32110596,5,1
1312471368.74443030,47.37612534,8.55030918,575.27453613,5,1
1312471368.79540801,47.37612534,8.55030918,575.22796631,5,1
1312471368.84333849,47.37612915,8.55030823,574.79632568,5,1
1312471368.89535069,47.37612915,8.55030823,574.74877930,5,1
1312471368.94441652,47.37612915,8.55030823,574.70117188,5,1
1312471368.99535441,47.37612915,8.55030823,574.65356445,5,1
1312471369.04332542,47.37612915,8.55030823,574.60583496,5,1
1312471369.09460473,47.37612915,8.55030727,574.18707275,5,1
1312471369.14329982,47.37612915,8.55030727,574.13836670,5,1
1312471369.19593096,47.37612915,8.55030727,574.08959961,5,1
1312471369.24332976,47.37612915,8.55030727,574.04083252,5,1
1312471369.29642653,47.37612915,8.55030727,573.99200439,5,1
1312471369.34340644,47.37612915,8.55030727,573.60430908,5,1
1312471369.39542317,47.37612915,8.55030727,573.55462646,5,1
1312471369.44392228,47.37612915,8.55030727,573.50494385,5,1
1312471369.49743867,47.37612915,8.55030727,573.45513916,5,1
1312471369.54328847,47.37612915,8.55030632,573.40539551,5,1
1312471369.59546399,47.37613297,8.55030632,573.05633545,5,1
1312471369.64443493,47.37613297,8.55030632,573.00579834,5,1
1312471369.69543433,47.37613297,8.55030632,572.95526123,5,1
1312471369.74330401,47.37613297,8.55030632,572.90472412,5,1
1312471369.79240823,47.37613297,8.55030632,572.85412598,5,1
1312471369.84343696,47.37613297,8.55030632,572.53265381,5,1
1312471369.89658952,47.37613297,8.55030632,572.48144531,5,1
1312471369.94342375,47.37613297,8.55030632,572.43011475,5,1
1312471369.99541759,47.37613297,8.55030632,572.37878418,5,1
1312471370.04428887,47.37613297,8.55030632,572.32745361,5,1
1312471370.09530687,47.37613297,8.55030632,572.04205322,5,1
1312471370.14333749,47.37613297,8.55030632,571.99011230,5,1
1312471370.19232416,47.37613297,8.55030632,571.93817139,5,1
1312471370.24330711,47.37613297,8.55030632,571.88616943,5,1
1312471370.29616785,47.37613297,8.55030632,571.83410645,5,1
1312471370.34431767,47.37613297,8.55030632,571.58789062,5,1
1312471370.39529848,47.37613297,8.55030632,571.53540039,5,1
1312471370.44330597,47.37613297,8.55030632,571.48291016,5,1
1312471370.49533463,47.37613297,8.55030632,571.43029785,5,1
1312471370.54327154,47.37613297,8.55030632,571.37768555,5,1
1312471370.59598732,47.37613297,8.55030632,571.16143799,5,1
1312471370.64443016,47.37613297,8.55030632,571.10845947,5,1
1312471370.69646835,47.37613297,8.55030632,571.05541992,5,1
1312471370.74430871,47.37613297,8.55030632,571.00231934,5,1
1312471370.79297662,47.37613297,8.55030632,570.94921875,5,1
1312471370.84442282,47.37613297,8.55030727,570.78015137,5,1
1312471370.89530635,47.37613297,8.55030727,570.72680664,5,1
1312471370.94442892,47.37613297,8.55030632,570.67346191,5,1
1312471370.99531388,47.37612915,8.55030632,570.62011719,5,1
1312471371.04500747,47.37612915,8.55030632,570.56665039,5,1
1312471371.09428310,47.37612915,8.55030727,570.43835449,5,1
1312471371.14427447,47.37612915,8.55030727,570.38488770,5,1
1312471371.19541049,47.37612915,8.55030727,570.33129883,5,1
1312471371.24444032,47.37612915,8.55030727,570.27777100,5,1
1312471371.29641938,47.37612915,8.55030727,570.22412109,5,1
1312471371.34443951,47.37612915,8.55030823,570.14910889,5,1
1312471371.39641809,47.37612915,8.55030823,570.09564209,5,1
1312471371.44341159,47.37612915,8.55030823,570.04205322,5,1
1312471371.49672413,47.37612915,8.55030823,569.98846436,5,1
1312471371.54331732,47.37612915,8.55030823,569.93481445,5,1
1312471371.59540272,47.37612915,8.55030918,569.89355469,5,1
1312471371.64351296,47.37612915,8.55030918,569.84002686,5,1
1312471371.69641590,47.37612915,8.55030918,569.78649902,5,1
1312471371.74373293,47.37612915,8.55030918,569.73291016,5,1
1312471371.79541373,47.37612915,8.55030918,569.67926025,5,1
1312471371.84381771,47.37612915,8.55030918,569.69201660,5,1
1312471371.89614391,47.37612915,8.55030918,569.63873291,5,1
1312471371.94340587,47.37612915,8.55031013,569.58538818,5,1
1312471371.99632049,47.37612915,8.55031013,569.53198242,5,1
1312471372.04328489,47.37612915,8.55031013,569.47857666,5,1
1312471372.09643555,47.37612915,8.55031013,569.51965332,5,1
1312471372.14331841,47.37612915,8.55031013,569.46661377,5,1
1312471372.19611502,47.37612915,8.55031013,569.41351318,5,1
1312471372.24335408,47.37612915,8.55031013,569.36041260,5,1
1312471372.29561377,47.37612915,8.55031013,569.30725098,5,1
1312471372.34341788,47.37612915,8.55031109,569.39758301,5,1
1312471372.39244342,47.37612915,8.55031109,569.34503174,5,1
1312471372.44444156,47.37612915,8.55031109,569.29241943,5,1
1312471372.49530482,47.37612915,8.55031109,569.23974609,5,1
1312471372.54333687,47.37612915,8.55031109,569.18707275,5,1
1312471372.59541154,47.37612915,8.55031109,569.31750488,5,1
1312471372.64341378,47.37612915,8.55031109,569.26550293,5,1
1312471372.69534492,47.37612915,8.55031204,569.21350098,5,1
1312471372.74330902,47.37612915,8.55031204,569.16143799,5,1
1312471372.79233027,47.37612915,8.55031204,569.10937500,5,1
1312471372.84431767,47.37612915,8.55031300,569.27447510,5,1
1312471372.89241362,47.37612915,8.55031300,569.22314453,5,1
1312471372.94329858,47.37612915,8.55031300,569.17181396,5,1
1312471372.99543524,47.37612915,8.55031300,569.12048340,5,1
1312471373.04361534,47.37612915,8.55031300,569.06903076,5,1
1312471373.09674358,47.37612915,8.55031395,569.26245117,5,1
1312471373.14341950,47.37612915,8.55031395,569.21191406,5,1
1312471373.19331455,47.37612915,8.55031395,569.16137695,5,1
1312471373.24330783,47.37612915,8.55031395,569.11077881,5,1
1312471373.29217029,47.37612915,8.55031395,569.06018066,5,1
1312471373.34334493,47.37612915,8.55031586,569.28662109,5,1
1312471373.39533448,47.37612915,8.55031586,569.23699951,5,1
1312471373.44437599,47.37612915,8.55031586,569.18731689,5,1
1312471373.49592352,47.37612915,8.55031586,569.13763428,5,1
1312471373.54331636,47.37612915,8.55031586,569.08789062,5,1
1312471373.59638619,47.37612915,8.55031586,569.32910156,5,1
1312471373.64403105,47.37612915,8.55031586,569.28039551,5,1
1312471373.69307137,47.37612915,8.55031586,569.23156738,5,1
1312471373.74443030,47.37612915,8.55031586,569.18273926,5,1
1312471373.79532838,47.37612534,8.55031681,569.13385010,5,1
1312471373.84443736,47.37612534,8.55031681,569.41693115,5,1
1312471373.89417958,47.37612534,8.55031681,569.36920166,5,1
1312471373.94444036,47.37612534,8.55031681,569.32147217,5,1
1312471373.99531937,47.37612534,8.55031776,569.27362061,5,1
1312471374.04436159,47.37612534,8.55031776,569.22576904,5,1
1312471374.09539485,47.37612534,8.55031776,569.52148438,5,1
1312471374.14329195,47.37612534,8.55031776,569.47479248,5,1
1312471374.19531798,47.37612534,8.55031776,569.42810059,5,1
1312471374.24443960,47.37612534,8.55031776,569.38128662,5,1
1312471374.29649019,47.37612534,8.55031776,569.33447266,5,1
1312471374.34442878,47.37612534,8.55031776,569.65380859,5,1
1312471374.39537096,47.37612534,8.55031776,569.60821533,5,1
1312471374.44442773,47.37612534,8.55031776,569.56262207,5,1
1312471374.49642706,47.37612534,8.55031776,569.51696777,5,1
1312471374.54442978,47.37612534,8.55031776,569.47131348,5,1
1312471374.59643126,47.37612152,8.55031872,569.79785156,5,1
1312471374.64442897,47.37612152,8.55031872,569.75335693,5,1
1312471374.69548059,47.37612152,8.55031872,569.70886230,5,1
1312471374.74443078,47.37612152,8.55031872,569.66430664,5,1
1312471374.79531789,47.37612152,8.55031872,569.61975098,5,1
1312471374.84444189,47.37612152,8.55031967,569.96282959,5,1
1312471374.89643121,47.37612152,8.55031967,569.91955566,5,1
1312471374.94340587,47.37612152,8.55031967,569.87628174,5,1
1312471374.99633813,47.37612152,8.55031967,569.83294678,5,1
1312471375.04340029,47.37612152,8.55031967,569.78961182,5,1
1312471375.09422421,47.37612152,8.55031967,570.14294434,5,1
1312471375.14434195,47.37612152,8.55031967,570.10089111,5,1
1312471375.19534636,47.37612152,8.55031967,570.05883789,5,1
1312471375.24441767,47.37612152,8.55031967,570.01666260,5,1
1312471375.29608989,47.37612152,8.55031967,569.97448730,5,1
1312471375.34340620,47.37612152,8.55031967,570.35156250,5,1
1312471375.39633918,47.37612152,8.55031967,570.31085205,5,1
1312471375.44432235,47.37612152,8.55031967,570.27008057,5,1
1312471375.49542022,47.37611771,8.55032063,570.22930908,5,1
1312471375.54342747,47.37611771,8.55032063,570.18847656,5,1
1312471375.59558439,47.37611771,8.55032063,570.56921387,5,1
1312471375.64445472,47.37611771,8.55032063,570.52984619,5,1
1312471375.69642711,47.37611771,8.55032063,570.49041748,5,1
1312471375.74339294,47.37611771,8.55032063,570.45092773,5,1
1312471375.79579496,47.37611771,8.55032063,570.41143799,5,1
1312471375.84444189,47.37611771,8.55032063,570.79443359,5,1
1312471375.89646792,47.37611771,8.55032063,570.75634766,5,1
1312471375.94342852,47.37611771,8.55032063,570.71826172,5,1
1312471375.99548697,47.37611771,8.55032063,570.68011475,5,1
1312471376.04334211,47.37611771,8.55032063,570.64196777,5,1
1312471376.09532595,47.37611771,8.55032063,571.03131104,5,1
1312471376.14329123,47.37611771,8.55032063,570.99456787,5,1
1312471376.19532537,47.37611771,8.55032063,570.95776367,5,1
1312471376.24433255,47.37611389,8.55032063,570.92095947,5,1
1312471376.29630637,47.37611389,8.55032063,570.88409424,5,1
1312471376.34334302,47.37611389,8.55031967,571.28552246,5,1
1312471376.39532328,47.37611389,8.55031967,571.25012207,5,1
1312471376.44332671,47.37611389,8.55031967,571.21472168,5,1
1312471376.49234581,47.37611389,8.55032063,571.17919922,5,1
1312471376.54434633,47.37611389,8.55032063,571.14367676,5,1
1312471376.59533715,47.37611389,8.55031967,571.55383301,5,1
1312471376.64399290,47.37611389,8.55031967,571.51983643,5,1
1312471376.69544721,47.37611389,8.55032063,571.48577881,5,1
1312471376.74441481,47.37611389,8.55032063,571.45166016,5,1
1312471376.79641581,47.37611389,8.55032063,571.41748047,5,1
1312471376.84330654,47.37611389,8.55032063,571.82025146,5,1
1312471376.89533949,47.37611389,8.55032063,571.78753662,5,1
1312471376.94442010,47.37611389,8.55032063,571.75476074,5,1
1312471376.99641848,47.37611389,8.55032063,571.72192383,5,1
1312471377.03635168,47.37611389,8.55032158,571.68908691,5,1
1312471377.08442783,47.37611389,8.55032158,572.11029053,5,1
1312471377.13546276,47.37611008,8.55032158,572.07897949,5,1
1312471377.18841958,47.37611008,8.55032158,572.04760742,5,1
1312471377.23565221,47.37611008,8.55032158,572.01623535,5,1
1312471377.28842545,47.37611008,8.55032158,571.98474121,5,1
1312471377.33570623,47.37611008,8.55032158,572.40856934,5,1
1312471377.38845754,47.37611008,8.55032158,572.37860107,5,1
1312471377.43692827,47.37611008,8.55032158,572.34857178,5,1
1312471377.48393226,47.37611008,8.55032158,572.31854248,5,1
1312471377.53612995,47.37611008,8.55032158,572.28845215,5,1
1312471377.58429646,47.37611008,8.55032158,572.71008301,5,1
1312471377.63616419,47.37611008,8.55032158,572.68151855,5,1
1312471377.68881297,47.37611008,8.55032158,572.65295410,5,1
1312471377.73635530,47.37611008,8.55032158,572.62426758,5,1
1312471377.78844166,47.37611008,8.55032158,572.59558105,5,1
1312471377.83674765,47.37610626,8.55032158,573.01007080,5,1
1312471377.89128470,47.37610626,8.55032158,572.98284912,5,1
1312471377.93631482,47.37610626,8.55032158,572.95556641,5,1
1312471377.98369479,47.37610626,8.55032158,572.92822266,5,1
1312471378.03650022,47.37610626,8.55032158,572.90081787,5,1
1312471378.08384919,47.37610626,8.55032158,573.32318115,5,1
1312471378.13532996,47.37610626,8.55032158,573.29724121,5,1
1312471378.18732905,47.37610626,8.55032158,573.27130127,5,1
1312471378.23561883,47.37610626,8.55032158,573.24530029,5,1
1312471378.29129624,47.37610626,8.55032158,573.21929932,5,1
1312471378.33645773,47.37610626,8.55032253,573.65246582,5,1
1312471378.38844728,47.37610626,8.55032253,573.62805176,5,1
1312471378.43649530,47.37610626,8.55032253,573.60351562,5,1
1312471378.48740554,47.37610626,8.55032253,573.57897949,5,1
1312471378.53644562,47.37610626,8.55032253,573.55444336,5,1
1312471378.58444953,47.37610626,8.55032349,573.98364258,5,1
1312471378.63675427,47.37610626,8.55032349,573.96057129,5,1
1312471378.69128203,47.37610626,8.55032349,573.93750000,5,1
1312471378.73641181,47.37610245,8.55032349,573.91436768,5,1
1312471378.78370142,47.37610245,8.55032349,573.89123535,5,1
1312471378.83632731,47.37610245,8.55032444,574.30718994,5,1
1312471378.88433218,47.37610245,8.55032444,574.28546143,5,1
1312471378.93544054,47.37610245,8.55032444,574.26367188,5,1
1312471378.98440671,47.37610245,8.55032444,574.24188232,5,1
1312471379.03630948,47.37610245,8.55032444,574.22003174,5,1
1312471379.08432674,47.37610245,8.55032444,574.64447021,5,1
1312471379.13550615,47.37610245,8.55032444,574.62408447,5,1
1312471379.18432951,47.37610245,8.55032444,574.60369873,5,1
1312471379.23629642,47.37610245,8.55032444,574.58325195,5,1
1312471379.28831196,47.37610245,8.55032539,574.56274414,5,1
1312471379.33643889,47.37609863,8.55032539,574.97467041,5,1
1312471379.38832426,47.37609863,8.55032539,574.95556641,5,1
1312471379.43646145,47.37609863,8.55032539,574.93646240,5,1
